#timestamp,LO_Frequency,Hit,StdDev 
1510005615.3,286046998.5,N
1510005635.2,286047000.8,N
1510005655.0,286047000.7,N
1510005655.9,286047000.7,N
1510005675.8,286047001.5,N
1510005695.6,286047001.4,N
1510005715.4,286047005.8,N
1510005735.3,286047002.9,N
1510005755.1,286047005.8,N
1510005775.9,286047005.8,N
1510005795.7,286047004.3,N
1510005815.5,286047003.2,N
1510005835.4,286047005.3,N
1510005855.2,286047007.6,N
1510005875.1,286047008.0,N
1510005876.0,286047008.0,N
1510005895.8,286047008.3,N
1510005915.7,286047008.5,N
1510005935.5,286047005.1,N
1510005955.3,286047004.7,N
1510005975.2,286047005.8,N
1510005995.0,286047002.5,N
1510005995.9,286047002.5,N
1510006015.8,286047002.6,N
1510006035.6,286047000.9,N
1510006055.4,286046998.2,N
1510006075.3,286047000.8,N
1510006095.1,286047001.2,N
1510006115.8,286047000.2,N
1510006135.7,286047003.4,N
1510006155.5,286047003.1,N
1510006175.4,286047003.1,N
1510006195.2,286047007.4,N
1510006215.0,286047005.0,N
1510006216.0,286047005.0,N
1510006235.8,286047005.4,N
1510006255.6,286047007.2,N
1510006275.5,286047007.0,N
1510006295.3,286047007.4,N
1510006315.1,286047006.7,N
1510006335.9,286047006.5,N
1510006355.7,286047009.2,Y
1510006375.6,286047004.3,P
1510006395.4,286047004.4,P
1510006415.3,286047006.0,P
1510006435.1,286047005.6,Y
1510006455.9,286046999.8,P
1510006475.7,286046998.2,N
1510006495.5,286046996.8,N
1510006515.4,286046995.3,N
1510006535.2,286046996.1,N
1510006555.1,286046993.9,N
1510006556.0,286046993.9,N
1510006575.8,286046992.3,N
1510006595.6,286046991.6,N
1510006615.5,286046987.9,Y
1510006635.3,286046987.3,P
1510006655.2,286046986.2,P
1510006675.0,286046983.9,P
1510006675.9,286046983.9,Y
1510006695.8,286046996.6,P
1510006715.6,286046997.3,N
1510006735.4,286046999.4,N
1510006755.3,286046995.1,N
1510006775.1,286046997.2,N
1510006795.9,286046996.8,N
1510006815.7,286046998.3,N
1510006835.5,286047001.2,N
1510006855.4,286047002.3,N
1510006875.2,286046997.4,N
1510006895.1,286046999.4,N
1510006896.0,286046999.4,N
1510006915.8,286046997.5,N
1510006935.6,286046998.0,N
1510006955.5,286047000.9,N
1510006975.3,286046998.8,N
1510006995.2,286046996.6,N
1510007015.9,286047000.0,N
1510007035.7,286047000.0,N
1510007055.6,286047002.3,N
1510007075.4,286047000.0,N
1510007095.3,286046999.6,N
1510007115.1,286046995.7,N
1510007135.8,286046999.5,N
1510007155.7,286046999.2,N
1510007175.5,286047001.2,N
1510007195.4,286047000.5,N
1510007215.2,286047001.0,N
1510007235.0,286047002.5,N
1510007235.9,286047002.5,N
1510007255.8,286047002.7,N
1510007275.6,286047004.3,N
1510007295.5,286047004.2,N
1510007315.3,286047007.6,Y
1510007335.1,286047004.9,P
1510007355.9,286047010.4,P
1510007375.7,286047012.7,N
1510007395.6,286047013.2,N
1510007415.4,286047013.2,N
1510007435.2,286047011.5,N
1510007455.1,286047011.7,N
1510007456.0,286047011.7,N
1510007475.8,286047009.8,N
1510007495.7,286047007.9,N
1510007515.5,286047008.0,N
1510007535.4,286047007.4,N
1510007555.2,286047010.3,N
1510007575.0,286047009.5,N
1510007575.9,286047009.5,N
1510007595.8,286047007.9,N
1510007615.6,286047013.6,Y
1510007635.5,286047005.9,P
1510007655.3,286047003.9,N
1510007675.1,286046999.6,N
1510007695.9,286046995.9,N
1510007715.7,286046996.6,N
1510007735.6,286046996.6,N
1510007755.4,286047003.4,N
1510007775.2,286047008.4,N
1510007795.1,286047008.4,N
1510007796.0,286047008.4,N
1510007815.8,286047005.2,N
1510007835.7,286047001.9,N
1510007855.5,286047003.9,N
1510007875.3,286047004.4,N
1510007895.2,286047005.1,N
1510007915.0,286047007.3,N
1510007915.9,286047007.3,N
1510007935.8,286047005.1,N
1510007955.6,286047007.1,N
1510007975.4,286047004.9,N
1510007995.3,286047007.7,N
1510008015.1,286047011.9,Y
1510008035.9,286047008.5,P
1510008055.7,286047007.8,P
1510008075.6,286047009.9,P
1510008095.4,286047012.3,Y
1510008115.2,286047003.9,P
1510008135.1,286047002.3,N
1510008136.0,286047002.3,N
1510008155.8,286046998.3,N
1510008175.7,286047004.9,N
1510008195.5,286047010.5,Y
1510008215.4,286047001.9,P
1510008235.2,286047002.4,P
1510008255.0,286047002.2,P
1510008256.0,286047002.2,Y
1510008275.8,286047000.3,P
1510008295.6,286047002.1,N
1510008315.5,286046998.3,N
1510008335.3,286046995.1,N
1510008355.1,286046995.6,N
1510008375.9,286046994.2,N
1510008395.7,286046993.0,N
1510008415.6,286046994.8,N
1510008435.4,286046995.2,N
1510008455.2,286046994.7,N
1510008475.1,286046990.8,N
1510008476.0,286046990.8,N
1510008495.8,286046988.9,Y
1510008515.7,286046993.2,P
1510008535.5,286046993.0,P
1510008555.4,286046992.4,P
1510008575.2,286046992.2,Y
1510008595.0,286046998.1,P
1510008596.0,286046998.1,N
1510008615.8,286046998.0,N
1510008635.6,286046994.2,Y
1510008655.5,286046993.3,P
1510008675.3,286046992.4,P
1510008695.2,286046988.9,P
1510008715.9,286046990.8,Y
1510008735.7,286046998.3,P
1510008755.6,286046999.0,N
1510008775.4,286046999.5,N
1510008795.3,286046995.2,N
1510008815.1,286046991.3,Y
1510008835.9,286046990.8,P
1510008855.7,286046987.9,P
1510008875.5,286046981.2,P
1510008895.4,286046980.1,Y
1510008915.2,286046988.1,P
1510008935.1,286046984.4,P
1510008936.0,286046984.4,P
1510008955.8,286046986.7,Y
1510008975.7,286046997.1,P
1510008995.5,286046991.5,N
1510009015.3,286046984.3,P
1510009035.2,286046984.6,Y
1510009055.0,286046991.2,P
1510009055.9,286046991.2,P
1510009075.8,286046990.0,P
1510009095.6,286046986.6,Y
1510009115.5,286046989.1,P
1510009135.3,286046986.9,P
1510009155.1,286046982.6,P
1510009175.9,286046981.0,Y
1510009195.7,286046990.2,P
